Year,Month,Day,Hour,Minute,Value (Times are PST for temperature in C)
2016,05,07,00,00,16.90
2016,05,07,00,01,16.90
2016,05,07,00,02,16.90
2016,05,07,00,03,16.80
2016,05,07,00,04,16.80
2016,05,07,00,05,16.80
2016,05,07,00,06,16.80
2016,05,07,00,07,16.70
2016,05,07,00,08,16.70
2016,05,07,00,09,16.70
2016,05,07,00,10,16.70
2016,05,07,00,11,16.80
2016,05,07,00,12,16.80
2016,05,07,00,13,16.80
2016,05,07,00,14,16.80
2016,05,07,00,15,16.80
2016,05,07,00,16,16.70
2016,05,07,00,17,16.70
2016,05,07,00,18,16.60
2016,05,07,00,19,16.50
2016,05,07,00,20,16.40
2016,05,07,00,21,16.30
2016,05,07,00,22,16.20
2016,05,07,00,23,16.10
2016,05,07,00,24,16.10
2016,05,07,00,25,16.00
2016,05,07,00,26,15.90
2016,05,07,00,27,15.80
2016,05,07,00,28,15.80
2016,05,07,00,29,15.80
2016,05,07,00,30,15.70
2016,05,07,00,31,15.60
2016,05,07,00,32,15.60
2016,05,07,00,33,15.50
2016,05,07,00,34,15.50
2016,05,07,00,35,15.40
2016,05,07,00,36,15.40
2016,05,07,00,37,15.30
2016,05,07,00,38,15.30
2016,05,07,00,39,15.30
2016,05,07,00,40,15.20
2016,05,07,00,41,15.20
2016,05,07,00,42,15.10
2016,05,07,00,43,15.00
2016,05,07,00,44,15.00
2016,05,07,00,45,14.90
2016,05,07,00,46,14.90
2016,05,07,00,47,14.80
2016,05,07,00,48,14.80
2016,05,07,00,49,14.80
2016,05,07,00,50,14.80
2016,05,07,00,51,14.80
2016,05,07,00,52,14.80
2016,05,07,00,53,14.80
2016,05,07,00,54,14.80
2016,05,07,00,55,14.70
2016,05,07,00,56,14.70
2016,05,07,00,57,14.70
2016,05,07,00,58,14.70
2016,05,07,00,59,14.70
2016,05,07,01,00,14.60
2016,05,07,01,01,14.60
2016,05,07,01,02,14.60
2016,05,07,01,03,14.70
2016,05,07,01,04,14.70
2016,05,07,01,05,14.70
2016,05,07,01,06,14.70
2016,05,07,01,07,14.80
2016,05,07,01,08,14.80
2016,05,07,01,09,14.80
2016,05,07,01,10,14.80
2016,05,07,01,11,14.80
2016,05,07,01,12,14.80
2016,05,07,01,13,14.80
2016,05,07,01,14,14.80
2016,05,07,01,15,14.80
2016,05,07,01,16,14.80
2016,05,07,01,17,14.80
2016,05,07,01,18,14.80
2016,05,07,01,19,14.80
2016,05,07,01,20,14.70
2016,05,07,01,21,14.70
2016,05,07,01,22,14.70
2016,05,07,01,23,14.70
2016,05,07,01,24,14.60
2016,05,07,01,25,14.60
2016,05,07,01,26,14.70
2016,05,07,01,27,14.70
2016,05,07,01,28,14.70
2016,05,07,01,29,14.80
2016,05,07,01,30,14.80
2016,05,07,01,31,14.80
2016,05,07,01,32,14.90
2016,05,07,01,33,15.00
2016,05,07,01,34,15.00
2016,05,07,01,35,15.00
2016,05,07,01,36,15.10
2016,05,07,01,37,15.10
2016,05,07,01,38,15.10
2016,05,07,01,39,15.10
2016,05,07,01,40,15.10
2016,05,07,01,41,15.10
2016,05,07,01,42,15.00
2016,05,07,01,43,15.00
2016,05,07,01,44,15.00
2016,05,07,01,45,15.00
2016,05,07,01,46,14.90
2016,05,07,01,47,14.90
2016,05,07,01,48,14.90
2016,05,07,01,49,14.80
2016,05,07,01,50,14.80
2016,05,07,01,51,14.80
2016,05,07,01,52,14.80
2016,05,07,01,53,14.70
2016,05,07,01,54,14.70
2016,05,07,01,55,14.60
2016,05,07,01,56,14.60
2016,05,07,01,57,14.60
2016,05,07,01,58,14.50
2016,05,07,01,59,14.50
2016,05,07,02,00,14.40
2016,05,07,02,01,14.40
2016,05,07,02,02,14.40
2016,05,07,02,03,14.30
2016,05,07,02,04,14.30
2016,05,07,02,05,14.20
2016,05,07,02,06,14.20
2016,05,07,02,07,14.20
2016,05,07,02,08,14.20
2016,05,07,02,09,14.10
2016,05,07,02,10,14.10
2016,05,07,02,11,14.00
2016,05,07,02,12,14.00
2016,05,07,02,13,13.90
2016,05,07,02,14,13.90
2016,05,07,02,15,13.90
2016,05,07,02,16,13.90
2016,05,07,02,17,13.90
2016,05,07,02,18,13.80
2016,05,07,02,19,13.80
2016,05,07,02,20,13.80
2016,05,07,02,21,13.80
2016,05,07,02,22,13.80
2016,05,07,02,23,13.70
2016,05,07,02,24,13.70
2016,05,07,02,25,13.70
2016,05,07,02,26,13.70
2016,05,07,02,27,13.70
2016,05,07,02,28,13.70
2016,05,07,02,29,13.70
2016,05,07,02,30,13.70
2016,05,07,02,31,13.70
2016,05,07,02,32,13.70
2016,05,07,02,33,13.70
2016,05,07,02,34,13.60
2016,05,07,02,35,13.60
2016,05,07,02,36,13.60
2016,05,07,02,37,13.60
2016,05,07,02,38,13.60
2016,05,07,02,39,13.60
2016,05,07,02,40,13.60
2016,05,07,02,41,13.60
2016,05,07,02,42,13.60
2016,05,07,02,43,13.60
2016,05,07,02,44,13.70
2016,05,07,02,45,13.70
2016,05,07,02,46,13.70
2016,05,07,02,47,13.70
2016,05,07,02,48,13.70
2016,05,07,02,49,13.70
2016,05,07,02,50,13.70
2016,05,07,02,51,13.70
2016,05,07,02,52,13.70
2016,05,07,02,53,13.70
2016,05,07,02,54,13.70
2016,05,07,02,55,13.70
2016,05,07,02,56,13.70
2016,05,07,02,57,13.70
2016,05,07,02,58,13.70
2016,05,07,02,59,13.70
2016,05,07,03,00,13.70
2016,05,07,03,01,13.70
2016,05,07,03,02,13.70
2016,05,07,03,03,13.70
2016,05,07,03,04,13.70
2016,05,07,03,05,13.70
2016,05,07,03,06,13.60
2016,05,07,03,07,13.60
2016,05,07,03,08,13.50
2016,05,07,03,09,13.50
2016,05,07,03,10,13.40
2016,05,07,03,11,13.40
2016,05,07,03,12,13.30
2016,05,07,03,13,13.30
2016,05,07,03,14,13.30
2016,05,07,03,15,13.30
2016,05,07,03,16,13.30
2016,05,07,03,17,13.30
2016,05,07,03,18,13.30
2016,05,07,03,19,13.30
2016,05,07,03,20,13.30
2016,05,07,03,21,13.40
2016,05,07,03,22,13.40
2016,05,07,03,23,13.40
2016,05,07,03,24,13.40
2016,05,07,03,25,13.40
2016,05,07,03,26,13.50
2016,05,07,03,27,13.50
2016,05,07,03,28,13.50
2016,05,07,03,29,13.50
2016,05,07,03,30,13.50
2016,05,07,03,31,13.50
2016,05,07,03,32,13.50
2016,05,07,03,33,13.50
2016,05,07,03,34,13.50
2016,05,07,03,35,13.40
2016,05,07,03,36,13.40
2016,05,07,03,37,13.30
2016,05,07,03,38,13.30
2016,05,07,03,39,13.20
2016,05,07,03,40,13.20
2016,05,07,03,41,13.10
2016,05,07,03,42,13.00
2016,05,07,03,43,12.90
2016,05,07,03,44,12.80
2016,05,07,03,45,12.80
2016,05,07,03,46,12.80
2016,05,07,03,47,12.70
2016,05,07,03,48,12.70
2016,05,07,03,49,12.60
2016,05,07,03,50,12.60
2016,05,07,03,51,12.60
2016,05,07,03,52,12.60
2016,05,07,03,53,12.70
2016,05,07,03,54,12.70
2016,05,07,03,55,12.70
2016,05,07,03,56,12.80
2016,05,07,03,57,12.80
2016,05,07,03,58,12.80
2016,05,07,03,59,12.80
2016,05,07,04,00,12.80
2016,05,07,04,01,12.80
2016,05,07,04,02,12.80
2016,05,07,04,03,12.80
2016,05,07,04,04,12.80
2016,05,07,04,05,12.90
2016,05,07,04,06,12.90
2016,05,07,04,07,12.90
2016,05,07,04,08,12.90
2016,05,07,04,09,12.90
2016,05,07,04,10,12.90
2016,05,07,04,11,12.80
2016,05,07,04,12,12.80
2016,05,07,04,13,12.80
2016,05,07,04,14,12.80
2016,05,07,04,15,12.70
2016,05,07,04,16,12.70
2016,05,07,04,17,12.70
2016,05,07,04,18,12.70
2016,05,07,04,19,12.60
2016,05,07,04,20,12.70
2016,05,07,04,21,12.70
2016,05,07,04,22,12.70
2016,05,07,04,23,12.70
2016,05,07,04,24,12.80
2016,05,07,04,25,12.80
2016,05,07,04,26,12.80
2016,05,07,04,27,12.80
2016,05,07,04,28,12.80
2016,05,07,04,29,12.80
2016,05,07,04,30,12.90
2016,05,07,04,31,12.90
2016,05,07,04,32,12.90
2016,05,07,04,33,12.90
2016,05,07,04,34,12.90
2016,05,07,04,35,12.90
2016,05,07,04,36,12.90
2016,05,07,04,37,12.90
2016,05,07,04,38,12.90
2016,05,07,04,39,12.90
2016,05,07,04,40,12.90
2016,05,07,04,41,12.80
2016,05,07,04,42,12.80
2016,05,07,04,43,12.80
2016,05,07,04,44,12.80
2016,05,07,04,45,12.80
2016,05,07,04,46,12.80
2016,05,07,04,47,12.80
2016,05,07,04,48,12.80
2016,05,07,04,49,12.80
2016,05,07,04,50,12.70
2016,05,07,04,51,12.70
2016,05,07,04,52,12.60
2016,05,07,04,53,12.60
2016,05,07,04,54,12.50
2016,05,07,04,55,12.50
2016,05,07,04,56,12.40
2016,05,07,04,57,12.30
2016,05,07,04,58,12.30
2016,05,07,04,59,12.20
2016,05,07,05,00,12.10
2016,05,07,05,01,12.00
2016,05,07,05,02,11.90
2016,05,07,05,03,11.90
2016,05,07,05,04,11.80
2016,05,07,05,05,11.80
2016,05,07,05,06,11.80
2016,05,07,05,07,11.80
2016,05,07,05,08,11.80
2016,05,07,05,09,11.70
2016,05,07,05,10,11.70
2016,05,07,05,11,11.70
2016,05,07,05,12,11.70
2016,05,07,05,13,11.70
2016,05,07,05,14,11.60
2016,05,07,05,15,11.60
2016,05,07,05,16,11.60
2016,05,07,05,17,11.60
2016,05,07,05,18,11.60
2016,05,07,05,19,11.60
2016,05,07,05,20,11.60
2016,05,07,05,21,11.50
2016,05,07,05,22,11.40
2016,05,07,05,23,11.40
2016,05,07,05,24,11.40
2016,05,07,05,25,11.50
2016,05,07,05,26,11.60
2016,05,07,05,27,11.60
2016,05,07,05,28,11.60
2016,05,07,05,29,11.60
2016,05,07,05,30,11.70
2016,05,07,05,31,11.70
2016,05,07,05,32,11.80
2016,05,07,05,33,11.90
2016,05,07,05,34,12.10
2016,05,07,05,35,12.20
2016,05,07,05,36,12.30
2016,05,07,05,37,12.40
2016,05,07,05,38,12.50
2016,05,07,05,39,12.50
2016,05,07,05,40,12.60
2016,05,07,05,41,12.60
2016,05,07,05,42,12.60
2016,05,07,05,43,12.60
2016,05,07,05,44,12.50
2016,05,07,05,45,12.30
2016,05,07,05,46,12.20
2016,05,07,05,47,12.10
2016,05,07,05,48,11.90
2016,05,07,05,49,11.80
2016,05,07,05,50,11.80
2016,05,07,05,51,11.80
2016,05,07,05,52,11.80
2016,05,07,05,53,11.80
2016,05,07,05,54,11.90
2016,05,07,05,55,11.90
2016,05,07,05,56,11.80
2016,05,07,05,57,11.80
2016,05,07,05,58,11.80
2016,05,07,05,59,11.80
2016,05,07,06,00,11.80
2016,05,07,06,01,11.80
2016,05,07,06,02,11.80
2016,05,07,06,03,11.70
2016,05,07,06,04,11.60
2016,05,07,06,05,11.60
2016,05,07,06,06,11.60
2016,05,07,06,07,11.50
2016,05,07,06,08,11.40
2016,05,07,06,09,11.40
2016,05,07,06,10,11.40
2016,05,07,06,11,11.40
2016,05,07,06,12,11.40
2016,05,07,06,13,11.40
2016,05,07,06,14,11.40
2016,05,07,06,15,11.60
2016,05,07,06,16,11.60
2016,05,07,06,17,11.80
2016,05,07,06,18,11.90
2016,05,07,06,19,12.10
2016,05,07,06,20,12.30
2016,05,07,06,21,12.40
2016,05,07,06,22,12.60
2016,05,07,06,23,12.80
2016,05,07,06,24,12.90
2016,05,07,06,25,13.00
2016,05,07,06,26,13.10
2016,05,07,06,27,13.10
2016,05,07,06,28,13.10
2016,05,07,06,29,13.10
2016,05,07,06,30,13.10
2016,05,07,06,31,13.10
2016,05,07,06,32,13.20
2016,05,07,06,33,13.20
2016,05,07,06,34,13.30
2016,05,07,06,35,13.30
2016,05,07,06,36,13.30
2016,05,07,06,37,13.40
2016,05,07,06,38,13.50
2016,05,07,06,39,13.50
2016,05,07,06,40,13.60
2016,05,07,06,41,13.60
2016,05,07,06,42,13.70
2016,05,07,06,43,13.70
2016,05,07,06,44,13.80
2016,05,07,06,45,13.80
2016,05,07,06,46,13.90
2016,05,07,06,47,13.90
2016,05,07,06,48,14.00
2016,05,07,06,49,14.10
2016,05,07,06,50,14.10
2016,05,07,06,51,14.10
2016,05,07,06,52,14.10
2016,05,07,06,53,14.00
2016,05,07,06,54,14.00
2016,05,07,06,55,13.90
2016,05,07,06,56,13.90
2016,05,07,06,57,13.90
2016,05,07,06,58,13.90
2016,05,07,06,59,14.00
2016,05,07,07,00,14.00
2016,05,07,07,01,14.00
2016,05,07,07,02,14.00
2016,05,07,07,03,14.10
2016,05,07,07,04,14.10
2016,05,07,07,05,14.10
2016,05,07,07,06,14.20
2016,05,07,07,07,14.20
2016,05,07,07,08,14.20
2016,05,07,07,09,14.20
2016,05,07,07,10,14.30
2016,05,07,07,11,14.40
2016,05,07,07,12,14.50
2016,05,07,07,13,14.50
2016,05,07,07,14,14.50
2016,05,07,07,15,14.50
2016,05,07,07,16,14.50
2016,05,07,07,17,14.50
2016,05,07,07,18,14.50
2016,05,07,07,19,14.40
2016,05,07,07,20,14.40
2016,05,07,07,21,14.50
2016,05,07,07,22,14.50
2016,05,07,07,23,14.50
2016,05,07,07,24,14.50
2016,05,07,07,25,14.50
2016,05,07,07,26,14.60
2016,05,07,07,27,14.60
2016,05,07,07,28,14.60
2016,05,07,07,29,14.70
2016,05,07,07,30,14.80
2016,05,07,07,31,14.80
2016,05,07,07,32,14.80
2016,05,07,07,33,14.90
2016,05,07,07,34,14.90
2016,05,07,07,35,15.00
2016,05,07,07,36,15.00
2016,05,07,07,37,15.00
2016,05,07,07,38,15.10
2016,05,07,07,39,15.10
2016,05,07,07,40,15.20
2016,05,07,07,41,15.20
2016,05,07,07,42,15.30
2016,05,07,07,43,15.30
2016,05,07,07,44,15.30
2016,05,07,07,45,15.40
2016,05,07,07,46,15.40
2016,05,07,07,47,15.40
2016,05,07,07,48,15.40
2016,05,07,07,49,15.40
2016,05,07,07,50,15.40
2016,05,07,07,51,15.50
2016,05,07,07,52,15.50
2016,05,07,07,53,15.50
2016,05,07,07,54,15.60
2016,05,07,07,55,15.60
2016,05,07,07,56,15.70
2016,05,07,07,57,15.70
2016,05,07,07,58,15.70
2016,05,07,07,59,15.80
2016,05,07,08,00,15.80
2016,05,07,08,01,15.80
2016,05,07,08,02,15.80
2016,05,07,08,03,15.80
2016,05,07,08,04,15.80
2016,05,07,08,05,15.80
2016,05,07,08,06,15.80
2016,05,07,08,07,15.80
2016,05,07,08,08,15.90
2016,05,07,08,09,15.90
2016,05,07,08,10,16.00
2016,05,07,08,11,16.10
2016,05,07,08,12,16.10
2016,05,07,08,13,16.10
2016,05,07,08,14,16.10
2016,05,07,08,15,16.10
2016,05,07,08,16,16.10
2016,05,07,08,17,16.10
2016,05,07,08,18,16.10
2016,05,07,08,19,16.10
2016,05,07,08,20,16.10
2016,05,07,08,21,16.10
2016,05,07,08,22,16.10
2016,05,07,08,23,16.10
2016,05,07,08,24,16.10
2016,05,07,08,25,16.10
2016,05,07,08,26,16.10
2016,05,07,08,27,16.10
2016,05,07,08,28,16.10
2016,05,07,08,29,16.10
2016,05,07,08,30,16.10
2016,05,07,08,31,16.20
2016,05,07,08,32,16.20
2016,05,07,08,33,16.30
2016,05,07,08,34,16.30
2016,05,07,08,35,16.40
2016,05,07,08,36,16.40
2016,05,07,08,37,16.40
2016,05,07,08,38,16.40
2016,05,07,08,39,16.40
2016,05,07,08,40,16.50
2016,05,07,08,41,16.60
2016,05,07,08,42,16.60
2016,05,07,08,43,16.60
2016,05,07,08,44,16.60
2016,05,07,08,45,16.70
2016,05,07,08,46,16.70
2016,05,07,08,47,16.70
2016,05,07,08,48,16.70
2016,05,07,08,49,16.70
2016,05,07,08,50,16.70
2016,05,07,08,51,16.70
2016,05,07,08,52,16.70
2016,05,07,08,53,16.80
2016,05,07,08,54,16.80
2016,05,07,08,55,16.80
2016,05,07,08,56,16.80
2016,05,07,08,57,16.80
2016,05,07,08,58,16.80
2016,05,07,08,59,16.80
2016,05,07,09,00,16.80
2016,05,07,09,01,16.70
2016,05,07,09,02,16.70
2016,05,07,09,03,16.70
2016,05,07,09,04,16.70
2016,05,07,09,05,16.70
2016,05,07,09,06,16.70
2016,05,07,09,07,16.80
2016,05,07,09,08,16.80
2016,05,07,09,09,16.90
2016,05,07,09,10,16.90
2016,05,07,09,11,17.00
2016,05,07,09,12,17.00
2016,05,07,09,13,17.00
2016,05,07,09,14,17.00
2016,05,07,09,15,17.00
2016,05,07,09,16,17.10
2016,05,07,09,17,17.20
2016,05,07,09,18,17.20
2016,05,07,09,19,17.30
2016,05,07,09,20,17.30
2016,05,07,09,21,17.30
2016,05,07,09,22,17.30
2016,05,07,09,23,17.30
2016,05,07,09,24,17.30
2016,05,07,09,25,17.30
2016,05,07,09,26,17.40
2016,05,07,09,27,17.50
2016,05,07,09,28,17.50
2016,05,07,09,29,17.50
2016,05,07,09,30,17.50
2016,05,07,09,31,17.50
2016,05,07,09,32,17.50
2016,05,07,09,33,17.50
2016,05,07,09,34,17.50
2016,05,07,09,35,17.60
2016,05,07,09,36,17.60
2016,05,07,09,37,17.70
2016,05,07,09,38,17.70
2016,05,07,09,39,17.80
2016,05,07,09,40,17.90
2016,05,07,09,41,18.00
2016,05,07,09,42,18.10
2016,05,07,09,43,18.10
2016,05,07,09,44,18.10
2016,05,07,09,45,18.10
2016,05,07,09,46,18.10
2016,05,07,09,47,18.10
2016,05,07,09,48,18.10
2016,05,07,09,49,18.10
2016,05,07,09,50,18.10
2016,05,07,09,51,18.10
2016,05,07,09,52,18.00
2016,05,07,09,53,17.90
2016,05,07,09,54,17.90
2016,05,07,09,55,17.90
2016,05,07,09,56,17.90
2016,05,07,09,57,17.90
2016,05,07,09,58,17.90
2016,05,07,09,59,17.90
2016,05,07,10,00,17.90
2016,05,07,10,01,18.00
2016,05,07,10,02,18.10
2016,05,07,10,03,18.20
2016,05,07,10,04,18.20
2016,05,07,10,05,18.30
2016,05,07,10,06,18.40
2016,05,07,10,07,18.40
2016,05,07,10,08,18.50
2016,05,07,10,09,18.60
2016,05,07,10,10,18.60
2016,05,07,10,11,18.70
2016,05,07,10,12,18.70
2016,05,07,10,13,18.80
2016,05,07,10,14,18.90
2016,05,07,10,15,18.90
2016,05,07,10,16,19.00
2016,05,07,10,17,19.10
2016,05,07,10,18,19.10
2016,05,07,10,19,19.10
2016,05,07,10,20,19.10
2016,05,07,10,21,19.10
2016,05,07,10,22,19.10
2016,05,07,10,23,19.10
2016,05,07,10,24,19.10
2016,05,07,10,25,19.10
2016,05,07,10,26,19.10
2016,05,07,10,27,19.20
2016,05,07,10,28,19.20
2016,05,07,10,29,19.30
2016,05,07,10,30,19.30
2016,05,07,10,31,19.30
2016,05,07,10,32,19.30
2016,05,07,10,33,19.30
2016,05,07,10,34,19.30
2016,05,07,10,35,19.20
2016,05,07,10,36,19.10
2016,05,07,10,37,19.00
2016,05,07,10,38,18.90
2016,05,07,10,39,18.90
2016,05,07,10,40,18.90
2016,05,07,10,41,18.90
2016,05,07,10,42,18.90
2016,05,07,10,43,18.90
2016,05,07,10,44,18.90
2016,05,07,10,45,18.90
2016,05,07,10,46,18.90
2016,05,07,10,47,18.90
2016,05,07,10,48,18.90
2016,05,07,10,49,18.90
2016,05,07,10,50,18.90
2016,05,07,10,51,18.90
2016,05,07,10,52,18.90
2016,05,07,10,53,18.80
2016,05,07,10,54,18.80
2016,05,07,10,55,18.80
2016,05,07,10,56,18.80
2016,05,07,10,57,18.80
2016,05,07,10,58,18.70
2016,05,07,10,59,18.60
2016,05,07,11,00,18.60
2016,05,07,11,01,18.50
2016,05,07,11,02,18.50
2016,05,07,11,03,18.40
2016,05,07,11,04,18.40
2016,05,07,11,05,18.50
2016,05,07,11,06,18.60
2016,05,07,11,07,18.60
2016,05,07,11,08,18.60
2016,05,07,11,09,18.60
2016,05,07,11,10,18.70
2016,05,07,11,11,18.80
2016,05,07,11,12,18.90
2016,05,07,11,13,18.90
2016,05,07,11,14,18.90
2016,05,07,11,15,19.00
2016,05,07,11,16,19.10
2016,05,07,11,17,19.20
2016,05,07,11,18,19.30
2016,05,07,11,19,19.40
2016,05,07,11,20,19.40
2016,05,07,11,21,19.50
2016,05,07,11,22,19.60
2016,05,07,11,23,19.60
2016,05,07,11,24,19.70
2016,05,07,11,25,19.70
2016,05,07,11,26,19.80
2016,05,07,11,27,19.80
2016,05,07,11,28,19.80
2016,05,07,11,29,19.80
2016,05,07,11,30,19.80
2016,05,07,11,31,19.70
2016,05,07,11,32,19.60
2016,05,07,11,33,19.60
2016,05,07,11,34,19.50
2016,05,07,11,35,19.40
2016,05,07,11,36,19.40
2016,05,07,11,37,19.40
2016,05,07,11,38,19.40
2016,05,07,11,39,19.40
2016,05,07,11,40,19.30
2016,05,07,11,41,19.30
2016,05,07,11,42,19.30
2016,05,07,11,43,19.30
2016,05,07,11,44,19.30
2016,05,07,11,45,19.30
2016,05,07,11,46,19.30
2016,05,07,11,47,19.30
2016,05,07,11,48,19.40
2016,05,07,11,49,19.50
2016,05,07,11,50,19.60
2016,05,07,11,51,19.60
2016,05,07,11,52,19.70
2016,05,07,11,53,19.70
2016,05,07,11,54,19.70
2016,05,07,11,55,19.70
2016,05,07,11,56,19.70
2016,05,07,11,57,19.80
2016,05,07,11,58,19.80
2016,05,07,11,59,19.90
2016,05,07,12,00,19.90
2016,05,07,12,01,19.90
2016,05,07,12,02,19.90
2016,05,07,12,03,20.00
2016,05,07,12,04,20.10
2016,05,07,12,05,20.20
2016,05,07,12,06,20.20
2016,05,07,12,07,20.20
2016,05,07,12,08,20.20
2016,05,07,12,09,20.30
2016,05,07,12,10,20.30
2016,05,07,12,11,20.30
2016,05,07,12,12,20.20
2016,05,07,12,13,20.10
2016,05,07,12,14,20.10
2016,05,07,12,15,20.00
2016,05,07,12,16,19.90
2016,05,07,12,17,19.90
2016,05,07,12,18,19.90
2016,05,07,12,19,19.70
2016,05,07,12,20,19.60
2016,05,07,12,21,19.60
2016,05,07,12,22,19.60
2016,05,07,12,23,19.60
2016,05,07,12,24,19.70
2016,05,07,12,25,19.80
2016,05,07,12,26,19.80
2016,05,07,12,27,19.80
2016,05,07,12,28,19.90
2016,05,07,12,29,20.10
2016,05,07,12,30,20.20
2016,05,07,12,31,20.30
2016,05,07,12,32,20.40
2016,05,07,12,33,20.40
2016,05,07,12,34,20.50
2016,05,07,12,35,20.50
2016,05,07,12,36,20.50
2016,05,07,12,37,20.60
2016,05,07,12,38,20.70
2016,05,07,12,39,20.60
2016,05,07,12,40,20.50
2016,05,07,12,41,20.50
2016,05,07,12,42,20.40
2016,05,07,12,43,20.30
2016,05,07,12,44,20.30
2016,05,07,12,45,20.40
2016,05,07,12,46,20.50
2016,05,07,12,47,20.60
2016,05,07,12,48,20.70
2016,05,07,12,49,20.80
2016,05,07,12,50,20.90
2016,05,07,12,51,21.10
2016,05,07,12,52,21.20
2016,05,07,12,53,21.30
2016,05,07,12,54,21.30
2016,05,07,12,55,21.40
2016,05,07,12,56,21.50
2016,05,07,12,57,21.60
2016,05,07,12,58,21.60
2016,05,07,12,59,21.60
2016,05,07,13,00,21.70
2016,05,07,13,01,21.70
2016,05,07,13,02,21.70
2016,05,07,13,03,21.60
2016,05,07,13,04,21.60
2016,05,07,13,05,21.60
2016,05,07,13,06,21.60
2016,05,07,13,07,21.70
2016,05,07,13,08,21.90
2016,05,07,13,09,21.90
2016,05,07,13,10,21.90
2016,05,07,13,11,21.90
2016,05,07,13,12,21.80
2016,05,07,13,13,21.70
2016,05,07,13,14,21.60
2016,05,07,13,15,21.50
2016,05,07,13,16,21.40
2016,05,07,13,17,21.40
2016,05,07,13,18,21.40
2016,05,07,13,19,21.30
2016,05,07,13,20,21.30
2016,05,07,13,21,21.30
2016,05,07,13,22,21.30
2016,05,07,13,23,21.30
2016,05,07,13,24,21.20
2016,05,07,13,25,21.10
2016,05,07,13,26,21.00
2016,05,07,13,27,21.00
2016,05,07,13,28,20.80
2016,05,07,13,29,20.70
2016,05,07,13,30,20.50
2016,05,07,13,31,20.40
2016,05,07,13,32,20.40
2016,05,07,13,33,20.40
2016,05,07,13,34,20.40
2016,05,07,13,35,20.50
2016,05,07,13,36,20.50
2016,05,07,13,37,20.50
2016,05,07,13,38,20.50
2016,05,07,13,39,20.50
2016,05,07,13,40,20.50
2016,05,07,13,41,20.60
2016,05,07,13,42,20.50
2016,05,07,13,43,20.50
2016,05,07,13,44,20.40
2016,05,07,13,45,20.30
2016,05,07,13,46,20.40
2016,05,07,13,47,20.40
2016,05,07,13,48,20.40
2016,05,07,13,49,20.50
2016,05,07,13,50,20.50
2016,05,07,13,51,20.50
2016,05,07,13,52,20.50
2016,05,07,13,53,20.50
2016,05,07,13,54,20.50
2016,05,07,13,55,20.40
2016,05,07,13,56,20.40
2016,05,07,13,57,20.40
2016,05,07,13,58,20.40
2016,05,07,13,59,20.40
2016,05,07,14,00,20.50
2016,05,07,14,01,20.60
2016,05,07,14,02,20.60
2016,05,07,14,03,20.60
2016,05,07,14,04,20.60
2016,05,07,14,05,20.60
2016,05,07,14,06,20.50
2016,05,07,14,07,20.50
2016,05,07,14,08,20.40
2016,05,07,14,09,20.40
2016,05,07,14,10,20.50
2016,05,07,14,11,20.50
2016,05,07,14,12,20.50
2016,05,07,14,13,20.50
2016,05,07,14,14,20.40
2016,05,07,14,15,20.40
2016,05,07,14,16,20.40
2016,05,07,14,17,20.50
2016,05,07,14,18,20.50
2016,05,07,14,19,20.50
2016,05,07,14,20,20.60
2016,05,07,14,21,20.60
2016,05,07,14,22,20.50
2016,05,07,14,23,20.50
2016,05,07,14,24,20.40
2016,05,07,14,25,20.30
2016,05,07,14,26,20.30
2016,05,07,14,27,20.50
2016,05,07,14,28,20.70
2016,05,07,14,29,20.80
2016,05,07,14,30,20.90
2016,05,07,14,31,21.00
2016,05,07,14,32,21.10
2016,05,07,14,33,21.20
2016,05,07,14,34,21.30
2016,05,07,14,35,21.30
2016,05,07,14,36,21.30
2016,05,07,14,37,21.30
2016,05,07,14,38,21.20
2016,05,07,14,39,21.20
2016,05,07,14,40,21.20
2016,05,07,14,41,21.20
2016,05,07,14,42,21.10
2016,05,07,14,43,21.10
2016,05,07,14,44,21.10
2016,05,07,14,45,21.20
2016,05,07,14,46,21.30
2016,05,07,14,47,21.30
2016,05,07,14,48,21.40
2016,05,07,14,49,21.60
2016,05,07,14,50,21.60
2016,05,07,14,51,21.70
2016,05,07,14,52,21.70
2016,05,07,14,53,21.80
2016,05,07,14,54,21.80
2016,05,07,14,55,21.80
2016,05,07,14,56,21.70
2016,05,07,14,57,21.60
2016,05,07,14,58,21.60
2016,05,07,14,59,21.60
2016,05,07,15,00,21.60
2016,05,07,15,01,21.60
2016,05,07,15,02,21.60
2016,05,07,15,03,21.60
2016,05,07,15,04,21.60
2016,05,07,15,05,21.60
2016,05,07,15,06,21.60
2016,05,07,15,07,21.70
2016,05,07,15,08,21.80
2016,05,07,15,09,22.00
2016,05,07,15,10,22.10
2016,05,07,15,11,22.30
2016,05,07,15,12,22.40
2016,05,07,15,13,22.60
2016,05,07,15,14,22.90
2016,05,07,15,15,23.20
2016,05,07,15,16,23.40
2016,05,07,15,17,23.70
2016,05,07,15,18,23.90
2016,05,07,15,19,24.10
2016,05,07,15,20,24.30
2016,05,07,15,21,24.50
2016,05,07,15,22,24.70
2016,05,07,15,23,24.80
2016,05,07,15,24,24.90
2016,05,07,15,25,25.00
2016,05,07,15,26,25.10
2016,05,07,15,27,25.10
2016,05,07,15,28,25.20
2016,05,07,15,29,25.30
2016,05,07,15,30,25.40
2016,05,07,15,31,25.50
2016,05,07,15,32,25.50
2016,05,07,15,33,25.30
2016,05,07,15,34,25.20
2016,05,07,15,35,25.10
2016,05,07,15,36,25.10
2016,05,07,15,37,25.10
2016,05,07,15,38,25.10
2016,05,07,15,39,25.10
2016,05,07,15,40,25.00
2016,05,07,15,41,25.00
2016,05,07,15,42,25.00
2016,05,07,15,43,25.10
2016,05,07,15,44,25.10
2016,05,07,15,45,25.20
2016,05,07,15,46,25.20
2016,05,07,15,47,25.10
2016,05,07,15,48,25.00
2016,05,07,15,49,24.80
2016,05,07,15,50,24.60
2016,05,07,15,51,24.40
2016,05,07,15,52,24.20
2016,05,07,15,53,24.00
2016,05,07,15,54,23.60
2016,05,07,15,55,23.40
2016,05,07,15,56,23.30
2016,05,07,15,57,23.10
2016,05,07,15,58,22.90
2016,05,07,15,59,22.60
2016,05,07,16,00,22.20
2016,05,07,16,01,21.60
2016,05,07,16,02,21.00
2016,05,07,16,03,20.50
2016,05,07,16,04,19.80
2016,05,07,16,05,19.30
2016,05,07,16,06,19.00
2016,05,07,16,07,18.70
2016,05,07,16,08,18.60
2016,05,07,16,09,18.50
2016,05,07,16,10,18.40
2016,05,07,16,11,18.30
2016,05,07,16,12,18.30
2016,05,07,16,13,18.40
2016,05,07,16,14,18.50
2016,05,07,16,15,18.60
2016,05,07,16,16,18.70
2016,05,07,16,17,18.80
2016,05,07,16,18,19.00
2016,05,07,16,19,19.20
2016,05,07,16,20,19.40
2016,05,07,16,21,19.60
2016,05,07,16,22,19.90
2016,05,07,16,23,20.10
2016,05,07,16,24,20.20
2016,05,07,16,25,20.40
2016,05,07,16,26,20.60
2016,05,07,16,27,20.80
2016,05,07,16,28,21.00
2016,05,07,16,29,21.10
2016,05,07,16,30,21.30
2016,05,07,16,31,21.50
2016,05,07,16,32,21.70
2016,05,07,16,33,21.80
2016,05,07,16,34,22.00
2016,05,07,16,35,22.00
2016,05,07,16,36,22.10
2016,05,07,16,37,22.20
2016,05,07,16,38,22.20
2016,05,07,16,39,22.20
2016,05,07,16,40,22.20
2016,05,07,16,41,22.20
2016,05,07,16,42,22.10
2016,05,07,16,43,22.20
2016,05,07,16,44,22.20
2016,05,07,16,45,22.20
2016,05,07,16,46,22.20
2016,05,07,16,47,22.20
2016,05,07,16,48,22.20
2016,05,07,16,49,22.20
2016,05,07,16,50,22.30
2016,05,07,16,51,22.20
2016,05,07,16,52,22.10
2016,05,07,16,53,22.00
2016,05,07,16,54,21.90
2016,05,07,16,55,21.80
2016,05,07,16,56,21.80
2016,05,07,16,57,21.70
2016,05,07,16,58,21.60
2016,05,07,16,59,21.60
2016,05,07,17,00,21.40
2016,05,07,17,01,21.30
2016,05,07,17,02,21.30
2016,05,07,17,03,21.30
2016,05,07,17,04,21.30
2016,05,07,17,05,21.30
2016,05,07,17,06,21.30
2016,05,07,17,07,21.20
2016,05,07,17,08,21.10
2016,05,07,17,09,21.10
2016,05,07,17,10,21.00
2016,05,07,17,11,21.00
2016,05,07,17,12,21.00
2016,05,07,17,13,21.00
2016,05,07,17,14,21.00
2016,05,07,17,15,20.90
2016,05,07,17,16,20.80
2016,05,07,17,17,20.70
2016,05,07,17,18,20.70
2016,05,07,17,19,20.60